This is the latest recevied weather packets stored in our database for station/object DO6DD-13. If no packets are shown the sender has not sent any weather packets the latest 10 day(s).
| Time | Temp. | Humidity | Pressure | Rain* | Wind** | Luminosity | Snow |
|---|---|---|---|---|---|---|---|
| 1777433420 | 5.56° C | 64% | 1027.7 hPa | - | - | 2 W/m² | - |
| 1777432829 | 5.56° C | 63% | 1027.7 hPa | - | - | 2 W/m² | - |
| 1777432219 | 5.56° C | 63% | 1027.7 hPa | - | - | 2 W/m² | - |
| 1777431618 | 5.56° C | 63% | 1027.8 hPa | - | - | 2 W/m² | - |
| 1777431028 | 5.56° C | 63% | 1027.8 hPa | - | - | 2 W/m² | - |
| 1777430417 | 6.11° C | 62% | 1027.8 hPa | - | - | 2 W/m² | - |
| 1777429827 | 6.11° C | 61% | 1027.7 hPa | - | - | 2 W/m² | - |
| 1777429226 | 6.67° C | 60% | 1027.7 hPa | - | - | 2 W/m² | - |
| 1777428626 | 6.11° C | 60% | 1027.8 hPa | - | - | 2 W/m² | - |
| 1777428025 | 6.67° C | 59% | 1027.8 hPa | - | - | 2 W/m² | - |
| 1777427425 | 6.67° C | 58% | 1027.8 hPa | - | - | 2 W/m² | - |
| 1777426824 | 6.67° C | 58% | 1027.8 hPa | - | - | 2 W/m² | - |
| 1777426224 | 6.67° C | 57% | 1027.8 hPa | - | - | 2 W/m² | - |
| 1777425623 | 7.22° C | 57% | 1027.9 hPa | - | - | 2 W/m² | - |
| 1777425023 | 7.22° C | 56% | 1027.9 hPa | - | - | 2 W/m² | - |
| 1777424422 | 7.22° C | 56% | 1027.8 hPa | - | - | 2 W/m² | - |
| 1777423822 | 7.22° C | 56% | 1027.7 hPa | - | - | 2 W/m² | - |
| 1777423231 | 7.78° C | 55% | 1027.8 hPa | - | - | 2 W/m² | - |
| 1777422621 | 7.78° C | 54% | 1027.7 hPa | - | - | 2 W/m² | - |
| 1777422020 | 7.78° C | 54% | 1027.8 hPa | - | - | 2 W/m² | - |
| 1777421420 | 7.78° C | 53% | 1027.8 hPa | - | - | 2 W/m² | - |
| 1777420819 | 8.33° C | 52% | 1027.8 hPa | - | - | 2 W/m² | - |
| 1777420219 | 8.33° C | 51% | 1027.9 hPa | - | - | 2 W/m² | - |
| 1777419628 | 8.33° C | 50% | 1027.7 hPa | - | - | 2 W/m² | - |
| 1777419018 | 8.33° C | 49% | 1027.7 hPa | - | - | 2 W/m² | - |
* Rain since midnight (hover to see other rain measurements)
** Current wind speed in m/s (hover to see current wind gust speed)